Showing default

SPEKTR R, 37755

Orbit data source: Space-Track

SPEKTR R, 37755 is a Commonwealth of Independent States-origin payload satellite in HEO that was launched on Mon, 18 Jul 2011 UTC via a ZENIT-3SLBF launch vehicle from the Tyuratam Missile And Space Complex (TTMTR). Payload-class satellites include a variety of spacecraft equipped with specific instruments for various scientific and technological missions. These include communications satellites like Starlink; space stations such as the ISS; scientific satellites like the Hubble; Earth observation satellites from companies like Planet Labs, Umbra, and HawkEye 360; GPS; miniature CubeSats for education and research; and military/defense satellites.

Loading next visibility...
Identifier
37755, 2011-037A
Orbit
HEO
Country
Flag of CISCIS
Related business
Manufacturer
Lavochkin
Mission
Non-operational Civil Astronomy
Bus & Motor
NAVIGATOR, Unknown motor
Mass
3,660 kg wet, ~3,160 kg dry
Launch date (UTC)
2011-07-18 (14 years ago)
Launch vehicle
ZENIT-3SLBF
Launch site
Tyuratam Missile And Space Complex (TTMTR)
Object type
Payload
Rocket body
Debris
Shape & HBR
Box + 2 Pan + 1 Dish, 9.0 m
Radar Cross Section
18.197 m², Large (>1 m²)

Expand to show TLE details & history
Last TLE update: 1 month ago

TLE from 1 month ago
0 SPEKTR R
1 37755U 11037A   25274.86529625 -.00000320  00000-0  00000-0 0  9998
2 37755  86.2960 317.6811 6943482 350.5069   4.1793  0.11323121  5611
Epoch: 2025-10-01T20:46Z
TLE epoch observation values (Epoch: 2025-10-01T20:46:01.596Z)
Latitude
-7.13174°
Longitude
-5.00382°
Altitude
48,430.283 km
Speed
3.512 km/s
True Right ascension
21h 09m 20s
True Declination
-7° 07' 34"
Sunlit
Object was in daylight at epoch
Visualization orbit readout
Latitude
Unknown
Longitude
Unknown
Altitude
Unknown
Speed
Unknown
Apparent Right ascension
Unknown
Apparent Declination
Unknown
Sunlit
N/A
Visualization observer readout
Local Sidereal Time
15:38:31
Azimuth
Unknown
Elevation
Unknown
Doppler factor
Unknown
Orbital elements
Apogee altitude
299,414.175 km
Perigee altitude
48,785.241 km
Semi-major axis
180,477.845 km
Eccentricity
0.69435
Inclination
86.296°
RAAN
317.6811°
Arg. of periapsis
350.5069°
True anomaly
30.91413°
Mean anomaly
4.1793°
Eccentric anomaly
13.39685°
Mean motion
0.02831 °/min
Orbital period
12,717.31 mins
BSTAR
0
Loading maneuver chart data...
Computing Atmospheric mass density...
Loading historical data...
Loading historical data...
Loading historical data...
Loading historical data...
Loading historical data...
Loading historical data...
Loading historical data...

Documentation

Showing up to 5 results
|